Fremont, MI

11:01 PM EDT on October 18, 2019 (GMT -0400)
Fremont

Weather History for KFFX - August, 2019

Change the Weather History Date:

Monday, August 19, 2019

  Actual Average (KMKG) Record (KMKG)
Temperature  
Mean Temperature 71 °F 70 °F  
Max Temperature 82 °F 79 °F 94 °F (1947)
Min Temperature 60 °F 61 °F 45 °F (1943)
Degree Days  
Heating Degree Days 0 1  
Month to date heating degree days 2  
Since 1 June heating degree days 79  
Since 1 July heating degree days 13  
Cooling Degree Days 6 5  
Month to date cooling degree days 112  
Year to date cooling degree days 448  
Since 1 June cooling degree days 419  
Growing Degree Days 21 (Base 50)    
Moisture  
Dew Point 60 °F    
Average Humidity 75    
Maximum Humidity 100    
Minimum Humidity 34    
Precipitation  
Precipitation 0.00 in 0.10 in 1.52 in (1905)
Month to date precipitation 2.06  
Year to date precipitation 19.25  
Snow  
Snow 0.00 in 0.00 in - ()
Month to date snowfall 0.0  
Since 1 June snowfall 0.0  
Since 1 July snowfall 0.0  
Snow Depth -    
Sea Level Pressure  
Sea Level Pressure 30.00 in    
Wind  
Wind Speed 2 mph (SW)    
Max Wind Speed 9 mph    
Max Gust Speed -    
Visibility 8 miles    
Events Fog    
T = Trace of Precipitation, MM = Missing Value Source: NWS Daily Summary

Daily Weather History Graph

Daily Weather History Graph

Search for Another Location

Airport or City:

Astronomy

Aug. 19, 2019 Rise Set
Actual Time 6:53 AM EDT 8:41 PM EDT
Civil Twilight 6:22 AM EDT 9:11 PM EDT
Nautical Twilight 5:45 AM EDT 9:48 PM EDT
Astronomical Twilight 5:04 AM EDT 10:28 PM EDT
Moon 10:55 PM EDT 10:39 AM EDT
Length of Visible Light 14h 49m
Length of Day
13h 48m
Waning Gibbous, 85% of the Moon is Illuminated
Aug 19
Waning Gibbous
Aug 23
Last Quarter
Aug 30
New
Sep 5
First Quarter
Sep 14
Full

Hourly Weather History & Observations

Time (EDT) Temp. Heat Index Dew Point Humidity Pressure Visibility Wind Dir Wind Speed Gust Speed Precip Events Conditions
12:15 AM 62.8 °F - 62.8 °F 100% 29.90 in 10.0 mi WSW 3.5 mph - N/A   Clear
12:20 AM 63.0 °F - 63.0 °F 100% 29.90 in 10.0 mi Calm Calm - N/A   Clear
12:38 AM 63.0 °F - 63.0 °F 100% 29.91 in 10.0 mi WSW 3.5 mph - N/A   Clear
12:55 AM 63.1 °F - 63.1 °F 100% 29.91 in 10.0 mi Calm Calm - N/A   Clear
1:15 AM 63.5 °F - 63.5 °F 100% 29.91 in 10.0 mi Calm Calm - N/A   Clear
1:35 AM 63.5 °F - 63.5 °F 100% 29.92 in 10.0 mi Calm Calm - N/A   Clear
1:59 AM 63.3 °F - 63.3 °F 100% 29.92 in 10.0 mi Calm Calm - N/A   Clear
2:16 AM 62.8 °F - 62.8 °F 100% 29.92 in 10.0 mi Calm Calm - N/A   Clear
2:35 AM 61.7 °F - 61.7 °F 100% 29.92 in 10.0 mi Calm Calm - N/A   Clear
2:55 AM 61.0 °F - 61.0 °F 100% 29.92 in 1.0 mi Calm Calm - N/A   Mist
2:56 AM 61.0 °F - 61.0 °F 100% 29.92 in 1.0 mi Calm Calm - N/A   Mist
3:15 AM 61.5 °F - 61.5 °F 100% 29.93 in 0.2 mi Calm Calm - N/A Fog Fog
3:20 AM 60.8 °F - 60.8 °F 100% 29.93 in 0.2 mi Calm Calm - N/A Fog Fog
3:38 AM 61.5 °F - 61.5 °F 100% 29.93 in 1.8 mi Calm Calm - N/A   Mist
3:56 AM 61.2 °F - 61.2 °F 100% 29.93 in 0.8 mi Calm Calm - N/A   Mist
4:15 AM 61.7 °F - 61.7 °F 100% 29.94 in 0.5 mi Calm Calm - N/A Fog Fog
4:35 AM 61.9 °F - 61.9 °F 100% 29.93 in 3.0 mi Calm Calm - N/A   Clear
4:36 AM 61.9 °F - 61.9 °F 100% 29.93 in 4.0 mi Calm Calm - N/A   Clear
4:59 AM 62.1 °F - 62.1 °F 100% 29.94 in 10.0 mi Calm Calm - N/A   Clear
5:17 AM 62.1 °F - 62.1 °F 100% 29.94 in 10.0 mi Calm Calm - N/A   Clear
5:35 AM 62.8 °F - 62.8 °F 100% 29.95 in 10.0 mi Calm Calm - N/A   Clear
5:55 AM 63.1 °F - 63.1 °F 100% 29.95 in 5.0 mi Calm Calm - N/A   Clear
5:56 AM 63.1 °F - 63.1 °F 100% 29.95 in 5.0 mi Calm Calm - N/A   Clear
6:15 AM 63.1 °F - 63.1 °F 100% 29.96 in 1.0 mi Calm Calm - N/A   Mist
6:19 AM 63.1 °F - 63.1 °F 100% 29.96 in 1.0 mi Calm Calm - N/A   Mist
6:37 AM 62.6 °F - 62.6 °F 100% 29.97 in 0.5 mi Calm Calm - N/A Fog Fog
6:55 AM 63.1 °F - 63.1 °F 100% 29.97 in 0.5 mi Calm Calm - N/A Fog Fog
7:15 AM 60.6 °F - 60.6 °F 100% 29.98 in 0.2 mi Calm Calm - N/A Fog Fog
7:16 AM 60.6 °F - 60.6 °F 100% 29.98 in 0.2 mi Calm Calm - N/A Fog Fog
7:35 AM 61.2 °F - 61.2 °F 100% 29.99 in 0.5 mi Calm Calm - N/A Fog Fog
7:58 AM 63.3 °F - 63.3 °F 100% 30.00 in 5.0 mi Calm Calm - N/A   Clear
8:16 AM 65.1 °F - 65.1 °F 100% 30.00 in 10.0 mi Calm Calm - N/A   Clear
8:35 AM 66.0 °F - 66.0 °F 100% 30.01 in 10.0 mi East 4.6 mph - N/A   Clear
8:55 AM 66.6 °F - 66.2 °F 99% 30.02 in 10.0 mi East 3.5 mph - N/A   Clear
9:19 AM 68.5 °F - 59.9 °F 74% 30.02 in 10.0 mi East 4.6 mph - N/A   Clear
9:37 AM 69.6 °F - 57.6 °F 65% 30.02 in 10.0 mi East 4.6 mph - N/A   Clear
9:55 AM 70.3 °F - 56.7 °F 62% 30.03 in 10.0 mi ESE 4.6 mph - N/A   Clear
9:56 AM 70.5 °F - 56.8 °F 62% 30.03 in 10.0 mi ESE 5.8 mph - N/A   Clear
10:15 AM 71.6 °F - 56.5 °F 59% 30.03 in 10.0 mi ESE 4.6 mph - N/A   Clear
10:35 AM 72.5 °F - 57.4 °F 59% 30.03 in 10.0 mi ESE 3.5 mph - N/A   Clear
10:58 AM 73.6 °F - 58.5 °F 59% 30.04 in 10.0 mi ESE 3.5 mph - N/A   Clear
11:16 AM 74.3 °F - 58.6 °F 58% 30.04 in 10.0 mi Calm Calm - N/A   Clear
11:35 AM 74.5 °F - 58.6 °F 58% 30.04 in 10.0 mi SSE 3.5 mph - N/A   Clear
11:55 AM 75.6 °F - 57.0 °F 52% 30.04 in 10.0 mi Calm Calm - N/A   Clear
12:19 PM 77.7 °F - 57.7 °F 50% 30.04 in 10.0 mi Calm Calm - N/A   Clear
12:37 PM 77.9 °F - 57.4 °F 49% 30.04 in 10.0 mi WSW 3.5 mph - N/A   Clear
12:55 PM 78.6 °F - 58.3 °F 50% 30.04 in 10.0 mi West 3.5 mph - N/A   Clear
12:56 PM 78.8 °F - 58.1 °F 49% 30.04 in 10.0 mi Calm Calm - N/A   Clear
1:15 PM 78.4 °F - 58.1 °F 50% 30.04 in 10.0 mi SSW 3.5 mph - N/A   Clear
1:16 PM 78.6 °F - 57.9 °F 49% 30.03 in 10.0 mi South 4.6 mph - N/A   Clear
1:35 PM 79.7 °F - 58.1 °F 47% 30.03 in 10.0 mi Calm Calm - N/A   Clear
1:40 PM 79.7 °F - 57.4 °F 46% 30.03 in 10.0 mi Calm Calm - N/A   Clear
1:58 PM 79.9 °F - 57.6 °F 46% 30.03 in 10.0 mi West 3.5 mph - N/A   Clear
2:16 PM 80.6 °F 80.8 °F 57.2 °F 45% 30.03 in 10.0 mi Calm Calm - N/A   Scattered Clouds
2:35 PM 80.4 °F 80.7 °F 57.0 °F 45% 30.03 in 10.0 mi Calm Calm - N/A   Scattered Clouds
2:55 PM 81.3 °F 81.3 °F 57.4 °F 44% 30.03 in 10.0 mi WSW 3.5 mph - N/A   Scattered Clouds
3:19 PM 81.7 °F 81.0 °F 54.0 °F 38% 30.02 in 10.0 mi SW 8.1 mph - N/A   Scattered Clouds
3:37 PM 82.4 °F 81.8 °F 55.8 °F 40% 30.02 in 10.0 mi West 8.1 mph - N/A   Clear
3:55 PM 81.9 °F - 52.9 °F 37% 30.02 in 10.0 mi West 6.9 mph - N/A   Clear
4:15 PM 81.7 °F 81.0 °F 53.8 °F 38% 30.02 in 10.0 mi WSW 9.2 mph - N/A   Clear
4:35 PM 81.7 °F 81.0 °F 54.0 °F 38% 30.02 in 10.0 mi West 5.8 mph - N/A   Clear
4:58 PM 81.5 °F - 52.9 °F 37% 30.02 in 10.0 mi SW 5.8 mph - N/A   Clear
5:16 PM 81.1 °F - 50.0 °F 34% 30.02 in 10.0 mi WSW 8.1 mph - N/A   Clear
5:35 PM 80.8 °F 80.5 °F 54.1 °F 40% 30.02 in 10.0 mi WSW 5.8 mph - N/A   Clear
5:55 PM 80.2 °F 80.2 °F 54.3 °F 41% 30.02 in 10.0 mi West 6.9 mph - N/A   Clear
6:19 PM 79.7 °F - 54.0 °F 41% 30.02 in 10.0 mi West 6.9 mph - N/A   Clear
6:37 PM 79.0 °F - 55.9 °F 45% 30.03 in 10.0 mi West 6.9 mph - N/A   Clear
6:55 PM 78.3 °F - 55.9 °F 46% 30.02 in 10.0 mi West 6.9 mph - N/A   Clear
6:56 PM 78.3 °F - 55.9 °F 46% 30.02 in 10.0 mi West 6.9 mph - N/A   Clear
7:15 PM 77.0 °F - 57.9 °F 52% 30.02 in 10.0 mi West 6.9 mph - N/A   Clear
7:16 PM 77.0 °F - 57.9 °F 52% 30.02 in 10.0 mi West 6.9 mph - N/A   Clear
7:35 PM 76.3 °F - 58.3 °F 54% 30.02 in 10.0 mi West 5.8 mph - N/A   Clear
7:58 PM 74.7 °F - 59.4 °F 59% 30.02 in 10.0 mi West 4.6 mph - N/A   Clear
8:16 PM 73.6 °F - 59.5 °F 61% 30.02 in 10.0 mi Calm Calm - N/A   Clear
8:35 PM 71.1 °F - 60.8 °F 70% 30.02 in 10.0 mi Calm Calm - N/A   Clear
8:36 PM 70.9 °F - 60.8 °F 70% 30.02 in 10.0 mi Calm Calm - N/A   Clear
8:55 PM 70.5 °F - 61.0 °F 72% 30.02 in 10.0 mi Calm Calm - N/A   Clear
8:56 PM 70.5 °F - 60.8 °F 71% 30.02 in 10.0 mi Calm Calm - N/A   Clear
9:19 PM 68.0 °F - 61.5 °F 80% 30.02 in 10.0 mi Calm Calm - N/A   Clear
9:37 PM 67.1 °F - 62.2 °F 84% 30.03 in 10.0 mi Calm Calm - N/A   Clear
9:56 PM 65.7 °F - 63.7 °F 93% 30.03 in 10.0 mi Calm Calm - N/A   Clear
10:15 PM 64.6 °F - 63.5 °F 96% 30.03 in 10.0 mi Calm Calm - N/A   Clear
10:35 PM 64.2 °F - 63.7 °F 98% 30.03 in 10.0 mi Calm Calm - N/A   Clear
10:58 PM 64.2 °F - 63.1 °F 96% 30.03 in 10.0 mi Calm Calm - N/A   Clear
11:16 PM 62.8 °F - 62.4 °F 99% 30.04 in 10.0 mi Calm Calm - N/A   Clear
11:35 PM 62.8 °F - 62.8 °F 100% 30.04 in 10.0 mi Calm Calm - N/A   Clear
11:55 PM 62.1 °F - 62.1 °F 100% 30.05 in 10.0 mi SSW 3.5 mph - N/A   Clear